Year,Month,Day,Hour,Minute,Value (Times are PST for temperature in C)
2019,04,02,00,00,7.30
2019,04,02,00,01,7.30
2019,04,02,00,02,7.30
2019,04,02,00,03,7.30
2019,04,02,00,04,7.20
2019,04,02,00,05,7.20
2019,04,02,00,06,7.20
2019,04,02,00,07,7.20
2019,04,02,00,08,7.10
2019,04,02,00,09,7.10
2019,04,02,00,10,7.10
2019,04,02,00,11,7.10
2019,04,02,00,12,7.10
2019,04,02,00,13,7.10
2019,04,02,00,14,7.10
2019,04,02,00,15,7.00
2019,04,02,00,16,7.10
2019,04,02,00,17,7.10
2019,04,02,00,18,7.10
2019,04,02,00,19,7.10
2019,04,02,00,20,7.10
2019,04,02,00,21,7.10
2019,04,02,00,22,7.10
2019,04,02,00,23,7.10
2019,04,02,00,24,7.00
2019,04,02,00,25,7.00
2019,04,02,00,26,7.00
2019,04,02,00,27,6.90
2019,04,02,00,28,6.90
2019,04,02,00,29,6.90
2019,04,02,00,30,6.90
2019,04,02,00,31,6.90
2019,04,02,00,32,6.90
2019,04,02,00,33,6.90
2019,04,02,00,34,6.90
2019,04,02,00,35,6.90
2019,04,02,00,36,6.90
2019,04,02,00,37,6.90
2019,04,02,00,38,6.90
2019,04,02,00,39,6.80
2019,04,02,00,40,6.80
2019,04,02,00,41,6.80
2019,04,02,00,42,6.70
2019,04,02,00,43,6.70
2019,04,02,00,44,6.70
2019,04,02,00,45,6.70
2019,04,02,00,46,6.60
2019,04,02,00,47,6.60
2019,04,02,00,48,6.60
2019,04,02,00,49,6.60
2019,04,02,00,50,6.60
2019,04,02,00,51,6.60
2019,04,02,00,52,6.60
2019,04,02,00,53,6.50
2019,04,02,00,54,6.50
2019,04,02,00,55,6.50
2019,04,02,00,56,6.50
2019,04,02,00,57,6.50
2019,04,02,00,58,6.50
2019,04,02,00,59,6.40
2019,04,02,01,00,6.40
2019,04,02,01,01,6.40
2019,04,02,01,02,6.40
2019,04,02,01,03,6.40
2019,04,02,01,04,6.40
2019,04,02,01,05,6.40
2019,04,02,01,06,6.40
2019,04,02,01,07,6.40
2019,04,02,01,08,6.40
2019,04,02,01,09,6.40
2019,04,02,01,10,6.40
2019,04,02,01,11,6.40
2019,04,02,01,12,6.30
2019,04,02,01,13,6.30
2019,04,02,01,14,6.30
2019,04,02,01,15,6.30
2019,04,02,01,16,6.30
2019,04,02,01,17,6.30
2019,04,02,01,18,6.40
2019,04,02,01,19,6.40
2019,04,02,01,20,6.40
2019,04,02,01,21,6.40
2019,04,02,01,22,6.40
2019,04,02,01,23,6.50
2019,04,02,01,24,6.50
2019,04,02,01,25,6.50
2019,04,02,01,26,6.50
2019,04,02,01,27,6.50
2019,04,02,01,28,6.50
2019,04,02,01,29,6.50
2019,04,02,01,30,6.50
2019,04,02,01,31,6.50
2019,04,02,01,32,6.50
2019,04,02,01,33,6.50
2019,04,02,01,34,6.40
2019,04,02,01,35,6.40
2019,04,02,01,36,6.30
2019,04,02,01,37,6.30
2019,04,02,01,38,6.30
2019,04,02,01,39,6.20
2019,04,02,01,40,6.20
2019,04,02,01,41,6.20
2019,04,02,01,42,6.20
2019,04,02,01,43,6.20
2019,04,02,01,44,6.20
2019,04,02,01,45,6.20
2019,04,02,01,46,6.20
2019,04,02,01,47,6.20
2019,04,02,01,48,6.20
2019,04,02,01,49,6.20
2019,04,02,01,50,6.20
2019,04,02,01,51,6.20
2019,04,02,01,52,6.20
2019,04,02,01,53,6.20
2019,04,02,01,54,6.20
2019,04,02,01,55,6.20
2019,04,02,01,56,6.20
2019,04,02,01,57,6.20
2019,04,02,01,58,6.30
2019,04,02,01,59,6.30
2019,04,02,02,00,6.30
2019,04,02,02,01,6.30
2019,04,02,02,02,6.30
2019,04,02,02,03,6.20
2019,04,02,02,04,6.20
2019,04,02,02,05,6.20
2019,04,02,02,06,6.20
2019,04,02,02,07,6.20
2019,04,02,02,08,6.10
2019,04,02,02,09,6.10
2019,04,02,02,10,6.10
2019,04,02,02,11,6.10
2019,04,02,02,12,6.00
2019,04,02,02,13,6.00
2019,04,02,02,14,6.00
2019,04,02,02,15,6.10
2019,04,02,02,16,6.10
2019,04,02,02,17,6.10
2019,04,02,02,18,6.10
2019,04,02,02,19,6.10
2019,04,02,02,20,6.20
2019,04,02,02,21,6.20
2019,04,02,02,22,6.20
2019,04,02,02,23,6.20
2019,04,02,02,24,6.20
2019,04,02,02,25,6.20
2019,04,02,02,26,6.20
2019,04,02,02,27,6.20
2019,04,02,02,28,6.20
2019,04,02,02,29,6.20
2019,04,02,02,30,6.20
2019,04,02,02,31,6.30
2019,04,02,02,32,6.30
2019,04,02,02,33,6.30
2019,04,02,02,34,6.40
2019,04,02,02,35,6.40
2019,04,02,02,36,6.40
2019,04,02,02,37,6.50
2019,04,02,02,38,6.50
2019,04,02,02,39,6.60
2019,04,02,02,40,6.70
2019,04,02,02,41,6.80
2019,04,02,02,42,6.90
2019,04,02,02,43,7.00
2019,04,02,02,44,7.10
2019,04,02,02,45,7.20
2019,04,02,02,46,7.30
2019,04,02,02,47,7.30
2019,04,02,02,48,7.40
2019,04,02,02,49,7.50
2019,04,02,02,50,7.60
2019,04,02,02,51,7.60
2019,04,02,02,52,7.60
2019,04,02,02,53,7.60
2019,04,02,02,54,7.60
2019,04,02,02,55,7.60
2019,04,02,02,56,7.60
2019,04,02,02,57,7.60
2019,04,02,02,58,7.60
2019,04,02,02,59,7.60
2019,04,02,03,00,7.70
2019,04,02,03,01,7.80
2019,04,02,03,02,7.90
2019,04,02,03,03,8.00
2019,04,02,03,04,8.00
2019,04,02,03,05,8.10
2019,04,02,03,06,8.10
2019,04,02,03,07,8.20
2019,04,02,03,08,8.30
2019,04,02,03,09,8.40
2019,04,02,03,10,8.50
2019,04,02,03,11,8.60
2019,04,02,03,12,8.80
2019,04,02,03,13,8.90
2019,04,02,03,14,9.00
2019,04,02,03,15,9.10
2019,04,02,03,16,9.20
2019,04,02,03,17,9.20
2019,04,02,03,18,9.30
2019,04,02,03,19,9.30
2019,04,02,03,20,9.30
2019,04,02,03,21,9.30
2019,04,02,03,22,9.30
2019,04,02,03,23,9.20
2019,04,02,03,24,9.20
2019,04,02,03,25,9.30
2019,04,02,03,26,9.40
2019,04,02,03,27,9.40
2019,04,02,03,28,9.40
2019,04,02,03,29,9.40
2019,04,02,03,30,9.50
2019,04,02,03,31,9.50
2019,04,02,03,32,9.60
2019,04,02,03,33,9.60
2019,04,02,03,34,9.60
2019,04,02,03,35,9.70
2019,04,02,03,36,9.80
2019,04,02,03,37,9.90
2019,04,02,03,38,9.90
2019,04,02,03,39,10.00
2019,04,02,03,40,10.00
2019,04,02,03,41,10.00
2019,04,02,03,42,10.00
2019,04,02,03,43,10.10
2019,04,02,03,44,10.10
2019,04,02,03,45,10.10
2019,04,02,03,46,10.10
2019,04,02,03,47,10.20
2019,04,02,03,48,10.20
2019,04,02,03,49,10.20
2019,04,02,03,50,10.30
2019,04,02,03,51,10.30
2019,04,02,03,52,10.30
2019,04,02,03,53,10.30
2019,04,02,03,54,10.30
2019,04,02,03,55,10.30
2019,04,02,03,56,10.30
2019,04,02,03,57,10.40
2019,04,02,03,58,10.50
2019,04,02,03,59,10.50
2019,04,02,04,00,10.50
2019,04,02,04,01,10.50
2019,04,02,04,02,10.50
2019,04,02,04,03,10.50
2019,04,02,04,04,10.60
2019,04,02,04,05,10.60
2019,04,02,04,06,10.60
2019,04,02,04,07,10.60
2019,04,02,04,08,10.60
2019,04,02,04,09,10.60
2019,04,02,04,10,10.60
2019,04,02,04,11,10.70
2019,04,02,04,12,10.70
2019,04,02,04,13,10.70
2019,04,02,04,14,10.70
2019,04,02,04,15,10.70
2019,04,02,04,16,10.70
2019,04,02,04,17,10.80
2019,04,02,04,18,10.80
2019,04,02,04,19,10.80
2019,04,02,04,20,10.80
2019,04,02,04,21,10.80
2019,04,02,04,22,10.80
2019,04,02,04,23,10.70
2019,04,02,04,24,10.70
2019,04,02,04,25,10.70
2019,04,02,04,26,10.70
2019,04,02,04,27,10.70
2019,04,02,04,28,10.70
2019,04,02,04,29,10.70
2019,04,02,04,30,10.70
2019,04,02,04,31,10.80
2019,04,02,04,32,10.80
2019,04,02,04,33,10.90
2019,04,02,04,34,10.90
2019,04,02,04,35,11.00
2019,04,02,04,36,11.00
2019,04,02,04,37,11.00
2019,04,02,04,38,11.10
2019,04,02,04,39,11.10
2019,04,02,04,40,11.10
2019,04,02,04,41,11.00
2019,04,02,04,42,11.00
2019,04,02,04,43,11.00
2019,04,02,04,44,10.90
2019,04,02,04,45,10.90
2019,04,02,04,46,10.90
2019,04,02,04,47,10.80
2019,04,02,04,48,10.80
2019,04,02,04,49,10.80
2019,04,02,04,50,10.70
2019,04,02,04,51,10.70
2019,04,02,04,52,10.60
2019,04,02,04,53,10.60
2019,04,02,04,54,10.50
2019,04,02,04,55,10.40
2019,04,02,04,56,10.40
2019,04,02,04,57,10.40
2019,04,02,04,58,10.40
2019,04,02,04,59,10.40
2019,04,02,05,00,10.40
2019,04,02,05,01,10.40
2019,04,02,05,02,10.40
2019,04,02,05,03,10.40
2019,04,02,05,04,10.40
2019,04,02,05,05,10.40
2019,04,02,05,06,10.40
2019,04,02,05,07,10.40
2019,04,02,05,08,10.30
2019,04,02,05,09,10.30
2019,04,02,05,10,10.40
2019,04,02,05,11,10.40
2019,04,02,05,12,10.50
2019,04,02,05,13,10.50
2019,04,02,05,14,10.50
2019,04,02,05,15,10.50
2019,04,02,05,16,10.50
2019,04,02,05,17,10.40
2019,04,02,05,18,10.30
2019,04,02,05,19,10.30
2019,04,02,05,20,10.30
2019,04,02,05,21,10.20
2019,04,02,05,22,10.20
2019,04,02,05,23,10.10
2019,04,02,05,24,10.10
2019,04,02,05,25,10.00
2019,04,02,05,26,10.00
2019,04,02,05,27,9.90
2019,04,02,05,28,9.90
2019,04,02,05,29,9.80
2019,04,02,05,30,9.80
2019,04,02,05,31,9.70
2019,04,02,05,32,9.70
2019,04,02,05,33,9.70
2019,04,02,05,34,9.60
2019,04,02,05,35,9.60
2019,04,02,05,36,9.60
2019,04,02,05,37,9.60
2019,04,02,05,38,9.70
2019,04,02,05,39,9.70
2019,04,02,05,40,9.70
2019,04,02,05,41,9.70
2019,04,02,05,42,9.70
2019,04,02,05,43,9.70
2019,04,02,05,44,9.70
2019,04,02,05,45,9.70
2019,04,02,05,46,9.60
2019,04,02,05,47,9.60
2019,04,02,05,48,9.60
2019,04,02,05,49,9.60
2019,04,02,05,50,9.60
2019,04,02,05,51,9.70
2019,04,02,05,52,9.70
2019,04,02,05,53,9.70
2019,04,02,05,54,9.70
2019,04,02,05,55,9.70
2019,04,02,05,56,9.70
2019,04,02,05,57,9.70
2019,04,02,05,58,9.80
2019,04,02,05,59,9.80
2019,04,02,06,00,9.80
2019,04,02,06,01,9.80
2019,04,02,06,02,9.80
2019,04,02,06,03,9.90
2019,04,02,06,04,9.90
2019,04,02,06,05,9.90
2019,04,02,06,06,9.90
2019,04,02,06,07,9.90
2019,04,02,06,08,9.90
2019,04,02,06,09,9.90
2019,04,02,06,10,9.90
2019,04,02,06,11,9.80
2019,04,02,06,12,9.80
2019,04,02,06,13,9.80
2019,04,02,06,14,9.80
2019,04,02,06,15,9.80
2019,04,02,06,16,9.80
2019,04,02,06,17,9.80
2019,04,02,06,18,9.80
2019,04,02,06,19,9.80
2019,04,02,06,20,9.80
2019,04,02,06,21,9.70
2019,04,02,06,22,9.70
2019,04,02,06,23,9.70
2019,04,02,06,24,9.80
2019,04,02,06,25,9.80
2019,04,02,06,26,9.80
2019,04,02,06,27,9.70
2019,04,02,06,28,9.70
2019,04,02,06,29,9.70
2019,04,02,06,30,9.60
2019,04,02,06,31,9.60
2019,04,02,06,32,9.60
2019,04,02,06,33,9.50
2019,04,02,06,34,9.50
2019,04,02,06,35,9.40
2019,04,02,06,36,9.40
2019,04,02,06,37,9.40
2019,04,02,06,38,9.40
2019,04,02,06,39,9.40
2019,04,02,06,40,9.40
2019,04,02,06,41,9.40
2019,04,02,06,42,9.50
2019,04,02,06,43,9.40
2019,04,02,06,44,9.40
2019,04,02,06,45,9.40
2019,04,02,06,46,9.40
2019,04,02,06,47,9.40
2019,04,02,06,48,9.40
2019,04,02,06,49,9.30
2019,04,02,06,50,9.30
2019,04,02,06,51,9.30
2019,04,02,06,52,9.30
2019,04,02,06,53,9.20
2019,04,02,06,54,9.20
2019,04,02,06,55,9.10
2019,04,02,06,56,9.10
2019,04,02,06,57,9.00
2019,04,02,06,58,9.00
2019,04,02,06,59,8.90
2019,04,02,07,00,8.90
2019,04,02,07,01,8.90
2019,04,02,07,02,8.80
2019,04,02,07,03,8.80
2019,04,02,07,04,8.80
2019,04,02,07,05,8.80
2019,04,02,07,06,8.80
2019,04,02,07,07,8.80
2019,04,02,07,08,8.80
2019,04,02,07,09,8.80
2019,04,02,07,10,8.80
2019,04,02,07,11,8.80
2019,04,02,07,12,8.80
2019,04,02,07,13,8.80
2019,04,02,07,14,8.80
2019,04,02,07,15,8.80
2019,04,02,07,16,8.80
2019,04,02,07,17,8.80
2019,04,02,07,18,8.80
2019,04,02,07,19,8.80
2019,04,02,07,20,8.90
2019,04,02,07,21,8.90
2019,04,02,07,22,8.90
2019,04,02,07,23,8.90
2019,04,02,07,24,8.90
2019,04,02,07,25,8.90
2019,04,02,07,26,8.90
2019,04,02,07,27,8.90
2019,04,02,07,28,9.00
2019,04,02,07,29,9.10
2019,04,02,07,30,9.20
2019,04,02,07,31,9.20
2019,04,02,07,32,9.30
2019,04,02,07,33,9.30
2019,04,02,07,34,9.30
2019,04,02,07,35,9.40
2019,04,02,07,36,9.50
2019,04,02,07,37,9.60
2019,04,02,07,38,9.60
2019,04,02,07,39,9.70
2019,04,02,07,40,9.70
2019,04,02,07,41,9.70
2019,04,02,07,42,9.70
2019,04,02,07,43,9.80
2019,04,02,07,44,9.80
2019,04,02,07,45,9.80
2019,04,02,07,46,9.80
2019,04,02,07,47,9.90
2019,04,02,07,48,9.90
2019,04,02,07,49,9.90
2019,04,02,07,50,10.00
2019,04,02,07,51,10.10
2019,04,02,07,52,10.10
2019,04,02,07,53,10.20
2019,04,02,07,54,10.20
2019,04,02,07,55,10.30
2019,04,02,07,56,10.40
2019,04,02,07,57,10.40
2019,04,02,07,58,10.40
2019,04,02,07,59,10.50
2019,04,02,08,00,10.50
2019,04,02,08,01,10.60
2019,04,02,08,02,10.60
2019,04,02,08,03,10.70
2019,04,02,08,04,10.80
2019,04,02,08,05,10.90
2019,04,02,08,06,11.00
2019,04,02,08,07,11.10
2019,04,02,08,08,11.20
2019,04,02,08,09,11.20
2019,04,02,08,10,11.30
2019,04,02,08,11,11.40
2019,04,02,08,12,11.40
2019,04,02,08,13,11.50
2019,04,02,08,14,11.60
2019,04,02,08,15,11.60
2019,04,02,08,16,11.60
2019,04,02,08,17,11.70
2019,04,02,08,18,11.80
2019,04,02,08,19,11.90
2019,04,02,08,20,12.00
2019,04,02,08,21,12.00
2019,04,02,08,22,12.10
2019,04,02,08,23,12.20
2019,04,02,08,24,12.30
2019,04,02,08,25,12.40
2019,04,02,08,26,12.40
2019,04,02,08,27,12.50
2019,04,02,08,28,12.60
2019,04,02,08,29,12.60
2019,04,02,08,30,12.70
2019,04,02,08,31,12.70
2019,04,02,08,32,12.80
2019,04,02,08,33,12.80
2019,04,02,08,34,12.90
2019,04,02,08,35,12.90
2019,04,02,08,36,12.90
2019,04,02,08,37,12.90
2019,04,02,08,38,12.90
2019,04,02,08,39,13.00
2019,04,02,08,40,13.00
2019,04,02,08,41,13.00
2019,04,02,08,42,13.00
2019,04,02,08,43,13.00
2019,04,02,08,44,13.00
2019,04,02,08,45,13.10
2019,04,02,08,46,13.10
2019,04,02,08,47,13.10
2019,04,02,08,48,13.20
2019,04,02,08,49,13.20
2019,04,02,08,50,13.30
2019,04,02,08,51,13.30
2019,04,02,08,52,13.40
2019,04,02,08,53,13.40
2019,04,02,08,54,13.50
2019,04,02,08,55,13.50
2019,04,02,08,56,13.60
2019,04,02,08,57,13.70
2019,04,02,08,58,13.70
2019,04,02,08,59,13.80
2019,04,02,09,00,13.80
2019,04,02,09,01,13.90
2019,04,02,09,02,13.90
2019,04,02,09,03,14.00
2019,04,02,09,04,14.00
2019,04,02,09,05,14.10
2019,04,02,09,06,14.10
2019,04,02,09,07,14.20
2019,04,02,09,08,14.30
2019,04,02,09,09,14.40
2019,04,02,09,10,14.50
2019,04,02,09,11,14.60
2019,04,02,09,12,14.70
2019,04,02,09,13,14.80
2019,04,02,09,14,14.80
2019,04,02,09,15,14.80
2019,04,02,09,16,14.80
2019,04,02,09,17,14.80
2019,04,02,09,18,14.80
2019,04,02,09,19,14.90
2019,04,02,09,20,15.00
2019,04,02,09,21,15.10
2019,04,02,09,22,15.20
2019,04,02,09,23,15.30
2019,04,02,09,24,15.40
2019,04,02,09,25,15.50
2019,04,02,09,26,15.50
2019,04,02,09,27,15.60
2019,04,02,09,28,15.60
2019,04,02,09,29,15.70
2019,04,02,09,30,15.70
2019,04,02,09,31,15.70
2019,04,02,09,32,15.70
2019,04,02,09,33,15.80
2019,04,02,09,34,15.80
2019,04,02,09,35,15.80
2019,04,02,09,36,15.80
2019,04,02,09,37,15.80
2019,04,02,09,38,15.90
2019,04,02,09,39,15.90
2019,04,02,09,40,15.90
2019,04,02,09,41,15.90
2019,04,02,09,42,15.90
2019,04,02,09,43,15.80
2019,04,02,09,44,15.80
2019,04,02,09,45,15.90
2019,04,02,09,46,15.90
2019,04,02,09,47,15.90
2019,04,02,09,48,15.90
2019,04,02,09,49,16.00
2019,04,02,09,50,16.00
2019,04,02,09,51,16.10
2019,04,02,09,52,16.20
2019,04,02,09,53,16.20
2019,04,02,09,54,16.30
2019,04,02,09,55,16.30
2019,04,02,09,56,16.30
2019,04,02,09,57,16.20
2019,04,02,09,58,16.20
2019,04,02,09,59,16.20
2019,04,02,10,00,16.30
2019,04,02,10,01,16.40
2019,04,02,10,02,16.40
2019,04,02,10,03,16.40
2019,04,02,10,04,16.40
2019,04,02,10,05,16.40
2019,04,02,10,06,16.40
2019,04,02,10,07,16.50
2019,04,02,10,08,16.50
2019,04,02,10,09,16.60
2019,04,02,10,10,16.60
2019,04,02,10,11,16.60
2019,04,02,10,12,16.60
2019,04,02,10,13,16.60
2019,04,02,10,14,16.70
2019,04,02,10,15,16.70
2019,04,02,10,16,16.70
2019,04,02,10,17,16.70
2019,04,02,10,18,16.70
2019,04,02,10,19,16.70
2019,04,02,10,20,16.70
2019,04,02,10,21,16.60
2019,04,02,10,22,16.60
2019,04,02,10,23,16.50
2019,04,02,10,24,16.50
2019,04,02,10,25,16.50
2019,04,02,10,26,16.60
2019,04,02,10,27,16.60
2019,04,02,10,28,16.60
2019,04,02,10,29,16.50
2019,04,02,10,30,16.50
2019,04,02,10,31,16.50
2019,04,02,10,32,16.50
2019,04,02,10,33,16.60
2019,04,02,10,34,16.60
2019,04,02,10,35,16.60
2019,04,02,10,36,16.60
2019,04,02,10,37,16.60
2019,04,02,10,38,16.50
2019,04,02,10,39,16.50
2019,04,02,10,40,16.50
2019,04,02,10,41,16.60
2019,04,02,10,42,16.60
2019,04,02,10,43,16.50
2019,04,02,10,44,16.50
2019,04,02,10,45,16.50
2019,04,02,10,46,16.50
2019,04,02,10,47,16.50
2019,04,02,10,48,16.60
2019,04,02,10,49,16.60
2019,04,02,10,50,16.70
2019,04,02,10,51,16.70
2019,04,02,10,52,16.70
2019,04,02,10,53,16.70
2019,04,02,10,54,16.70
2019,04,02,10,55,16.80
2019,04,02,10,56,16.80
2019,04,02,10,57,16.80
2019,04,02,10,58,16.80
2019,04,02,10,59,16.70
2019,04,02,11,00,16.70
2019,04,02,11,01,16.70
2019,04,02,11,02,16.80
2019,04,02,11,03,16.80
2019,04,02,11,04,16.90
2019,04,02,11,05,16.90
2019,04,02,11,06,17.00
2019,04,02,11,07,17.10
2019,04,02,11,08,17.10
2019,04,02,11,09,17.10
2019,04,02,11,10,17.20
2019,04,02,11,11,17.20
2019,04,02,11,12,17.20
2019,04,02,11,13,17.30
2019,04,02,11,14,17.40
2019,04,02,11,15,17.50
2019,04,02,11,16,17.60
2019,04,02,11,17,17.60
2019,04,02,11,18,17.60
2019,04,02,11,19,17.60
2019,04,02,11,20,17.60
2019,04,02,11,21,17.60
2019,04,02,11,22,17.60
2019,04,02,11,23,17.60
2019,04,02,11,24,17.60
2019,04,02,11,25,17.60
2019,04,02,11,26,17.60
2019,04,02,11,27,17.70
2019,04,02,11,28,17.70
2019,04,02,11,29,17.70
2019,04,02,11,30,17.70
2019,04,02,11,31,17.60
2019,04,02,11,32,17.60
2019,04,02,11,33,17.50
2019,04,02,11,34,17.60
2019,04,02,11,35,17.60
2019,04,02,11,36,17.60
2019,04,02,11,37,17.60
2019,04,02,11,38,17.70
2019,04,02,11,39,17.70
2019,04,02,11,40,17.70
2019,04,02,11,41,17.70
2019,04,02,11,42,17.70
2019,04,02,11,43,17.70
2019,04,02,11,44,17.50
2019,04,02,11,45,17.40
2019,04,02,11,46,17.40
2019,04,02,11,47,17.30
2019,04,02,11,48,17.30
2019,04,02,11,49,17.30
2019,04,02,11,50,17.20
2019,04,02,11,51,17.20
2019,04,02,11,52,17.20
2019,04,02,11,53,17.20
2019,04,02,11,54,17.20
2019,04,02,11,55,17.20
2019,04,02,11,56,17.30
2019,04,02,11,57,17.30
2019,04,02,11,58,17.30
2019,04,02,11,59,17.40
2019,04,02,12,00,17.40
2019,04,02,12,01,17.50
2019,04,02,12,02,17.50
2019,04,02,12,03,17.60
2019,04,02,12,04,17.70
2019,04,02,12,05,17.80
2019,04,02,12,06,17.90
2019,04,02,12,07,17.90
2019,04,02,12,08,17.90
2019,04,02,12,09,18.00
2019,04,02,12,10,18.10
2019,04,02,12,11,18.10
2019,04,02,12,12,18.10
2019,04,02,12,13,18.20
2019,04,02,12,14,18.20
2019,04,02,12,15,18.30
2019,04,02,12,16,18.20
2019,04,02,12,17,18.20
2019,04,02,12,18,18.10
2019,04,02,12,19,18.10
2019,04,02,12,20,18.10
2019,04,02,12,21,18.10
2019,04,02,12,22,18.10
2019,04,02,12,23,18.10
2019,04,02,12,24,18.20
2019,04,02,12,25,18.30
2019,04,02,12,26,18.30
2019,04,02,12,27,18.40
2019,04,02,12,28,18.40
2019,04,02,12,29,18.40
2019,04,02,12,30,18.50
2019,04,02,12,31,18.40
2019,04,02,12,32,18.30
2019,04,02,12,33,18.30
2019,04,02,12,34,18.20
2019,04,02,12,35,18.20
2019,04,02,12,36,18.20
2019,04,02,12,37,18.20
2019,04,02,12,38,18.20
2019,04,02,12,39,18.20
2019,04,02,12,40,18.10
2019,04,02,12,41,18.10
2019,04,02,12,42,18.00
2019,04,02,12,43,18.00
2019,04,02,12,44,18.00
2019,04,02,12,45,18.00
2019,04,02,12,46,18.10
2019,04,02,12,47,18.10
2019,04,02,12,48,18.10
2019,04,02,12,49,18.10
2019,04,02,12,50,18.10
2019,04,02,12,51,18.10
2019,04,02,12,52,18.10
2019,04,02,12,53,18.10
2019,04,02,12,54,18.10
2019,04,02,12,55,18.10
2019,04,02,12,56,18.10
2019,04,02,12,57,18.20
2019,04,02,12,58,18.20
2019,04,02,12,59,18.30
2019,04,02,13,00,18.20
2019,04,02,13,01,18.30
2019,04,02,13,02,18.30
2019,04,02,13,03,18.30
2019,04,02,13,04,18.30
2019,04,02,13,05,18.40
2019,04,02,13,06,18.40
2019,04,02,13,07,18.40
2019,04,02,13,08,18.50
2019,04,02,13,09,18.50
2019,04,02,13,10,18.40
2019,04,02,13,11,18.50
2019,04,02,13,12,18.50
2019,04,02,13,13,18.60
2019,04,02,13,14,18.70
2019,04,02,13,15,18.80
2019,04,02,13,16,18.80
2019,04,02,13,17,18.80
2019,04,02,13,18,18.90
2019,04,02,13,19,19.00
2019,04,02,13,20,19.00
2019,04,02,13,21,19.00
2019,04,02,13,22,18.90
2019,04,02,13,23,18.80
2019,04,02,13,24,18.70
2019,04,02,13,25,18.60
2019,04,02,13,26,18.60
2019,04,02,13,27,18.70
2019,04,02,13,28,18.80
2019,04,02,13,29,18.90
2019,04,02,13,30,19.00
2019,04,02,13,31,19.00
2019,04,02,13,32,19.10
2019,04,02,13,33,19.10
2019,04,02,13,34,19.20
2019,04,02,13,35,19.30
2019,04,02,13,36,19.30
2019,04,02,13,37,19.40
2019,04,02,13,38,19.50
2019,04,02,13,39,19.60
2019,04,02,13,40,19.60
2019,04,02,13,41,19.50
2019,04,02,13,42,19.30
2019,04,02,13,43,19.20
2019,04,02,13,44,19.00
2019,04,02,13,45,18.90
2019,04,02,13,46,18.80
2019,04,02,13,47,18.80
2019,04,02,13,48,18.70
2019,04,02,13,49,18.80
2019,04,02,13,50,18.80
2019,04,02,13,51,18.80
2019,04,02,13,52,18.80
2019,04,02,13,53,18.80
2019,04,02,13,54,18.80
2019,04,02,13,55,18.90
2019,04,02,13,56,18.90
2019,04,02,13,57,19.00
2019,04,02,13,58,19.10
2019,04,02,13,59,19.10
2019,04,02,14,00,19.10
2019,04,02,14,01,19.10
2019,04,02,14,02,19.10
2019,04,02,14,03,19.00
2019,04,02,14,04,18.90
2019,04,02,14,05,18.90
2019,04,02,14,06,18.90
2019,04,02,14,07,18.90
2019,04,02,14,08,18.90
2019,04,02,14,09,18.90
2019,04,02,14,10,18.90
2019,04,02,14,11,18.90
2019,04,02,14,12,18.90
2019,04,02,14,13,18.90
2019,04,02,14,14,19.00
2019,04,02,14,15,19.00
2019,04,02,14,16,19.00
2019,04,02,14,17,19.00
2019,04,02,14,18,19.00
2019,04,02,14,19,19.00
2019,04,02,14,20,19.00
2019,04,02,14,21,19.10
2019,04,02,14,22,19.10
2019,04,02,14,23,19.00
2019,04,02,14,24,19.00
2019,04,02,14,25,19.00
2019,04,02,14,26,19.00
2019,04,02,14,27,18.90
2019,04,02,14,28,18.90
2019,04,02,14,29,18.80
2019,04,02,14,30,18.80
2019,04,02,14,31,18.90
2019,04,02,14,32,18.90
2019,04,02,14,33,18.90
2019,04,02,14,34,18.90
2019,04,02,14,35,18.90
2019,04,02,14,36,18.90
2019,04,02,14,37,18.90
2019,04,02,14,38,18.90
2019,04,02,14,39,18.90
2019,04,02,14,40,18.90
2019,04,02,14,41,18.90
2019,04,02,14,42,19.00
2019,04,02,14,43,19.00
2019,04,02,14,44,19.00
2019,04,02,14,45,19.10
2019,04,02,14,46,19.10
2019,04,02,14,47,19.10
2019,04,02,14,48,19.10
2019,04,02,14,49,19.10
2019,04,02,14,50,19.10
2019,04,02,14,51,19.10
2019,04,02,14,52,19.10
2019,04,02,14,53,19.10
2019,04,02,14,54,19.10
2019,04,02,14,55,19.10
2019,04,02,14,56,19.20
2019,04,02,14,57,19.20
2019,04,02,14,58,19.20
2019,04,02,14,59,19.10
2019,04,02,15,00,19.10
2019,04,02,15,01,19.10
2019,04,02,15,02,19.10
2019,04,02,15,03,19.10
2019,04,02,15,04,19.10
2019,04,02,15,05,19.00
2019,04,02,15,06,19.00
2019,04,02,15,07,19.00
2019,04,02,15,08,19.00
2019,04,02,15,09,19.00
2019,04,02,15,10,19.00
2019,04,02,15,11,19.00
2019,04,02,15,12,19.00
2019,04,02,15,13,19.00
2019,04,02,15,14,19.10
2019,04,02,15,15,19.10
2019,04,02,15,16,19.00
2019,04,02,15,17,19.00
2019,04,02,15,18,18.90
2019,04,02,15,19,18.90
2019,04,02,15,20,18.90
2019,04,02,15,21,18.90
2019,04,02,15,22,18.90
2019,04,02,15,23,18.90
2019,04,02,15,24,18.90
2019,04,02,15,25,19.00
2019,04,02,15,26,19.00
2019,04,02,15,27,19.10
2019,04,02,15,28,19.10
2019,04,02,15,29,19.10
2019,04,02,15,30,19.00
2019,04,02,15,31,19.00
2019,04,02,15,32,19.00
2019,04,02,15,33,19.00
2019,04,02,15,34,18.90
2019,04,02,15,35,18.90
2019,04,02,15,36,18.90
2019,04,02,15,37,18.90
2019,04,02,15,38,18.90
2019,04,02,15,39,18.90
2019,04,02,15,40,18.90
2019,04,02,15,41,18.90
2019,04,02,15,42,19.00
2019,04,02,15,43,19.00
2019,04,02,15,44,18.90
2019,04,02,15,45,18.90
2019,04,02,15,46,18.90
2019,04,02,15,47,18.90
2019,04,02,15,48,18.90
2019,04,02,15,49,18.90
2019,04,02,15,50,18.80
2019,04,02,15,51,18.80
2019,04,02,15,52,18.80
2019,04,02,15,53,18.80
2019,04,02,15,54,18.80
2019,04,02,15,55,18.80
2019,04,02,15,56,18.80
2019,04,02,15,57,18.80
2019,04,02,15,58,18.80
2019,04,02,15,59,18.80
2019,04,02,16,00,18.70
2019,04,02,16,01,18.70
2019,04,02,16,02,18.70
2019,04,02,16,03,18.70
2019,04,02,16,04,18.70
2019,04,02,16,05,18.60
2019,04,02,16,06,18.70
2019,04,02,16,07,18.70
2019,04,02,16,08,18.70
2019,04,02,16,09,18.70
2019,04,02,16,10,18.70
2019,04,02,16,11,18.70
2019,04,02,16,12,18.60
2019,04,02,16,13,18.60
2019,04,02,16,14,18.70
2019,04,02,16,15,18.70
2019,04,02,16,16,18.70
2019,04,02,16,17,18.70
2019,04,02,16,18,18.70
2019,04,02,16,19,18.70
2019,04,02,16,20,18.70
2019,04,02,16,21,18.70
2019,04,02,16,22,18.70
2019,04,02,16,23,18.80
2019,04,02,16,24,18.80
2019,04,02,16,25,18.80
2019,04,02,16,26,18.80
2019,04,02,16,27,18.80
2019,04,02,16,28,18.80
2019,04,02,16,29,18.80
2019,04,02,16,30,18.80
2019,04,02,16,31,18.80
2019,04,02,16,32,18.70
2019,04,02,16,33,18.70
2019,04,02,16,34,18.60
2019,04,02,16,35,18.50
2019,04,02,16,36,18.40
2019,04,02,16,37,18.30
2019,04,02,16,38,18.20
2019,04,02,16,39,18.10
2019,04,02,16,40,18.00
2019,04,02,16,41,18.00
2019,04,02,16,42,17.90
2019,04,02,16,43,17.90
2019,04,02,16,44,17.80
2019,04,02,16,45,17.80
2019,04,02,16,46,17.80
2019,04,02,16,47,17.70
2019,04,02,16,48,17.70
2019,04,02,16,49,17.60
2019,04,02,16,50,17.60
2019,04,02,16,51,17.60
2019,04,02,16,52,17.60
2019,04,02,16,53,17.50
2019,04,02,16,54,17.50
2019,04,02,16,55,17.50
2019,04,02,16,56,17.50
2019,04,02,16,57,17.40
2019,04,02,16,58,17.40
2019,04,02,16,59,17.40
2019,04,02,17,00,17.30
2019,04,02,17,01,17.30
2019,04,02,17,02,17.30
2019,04,02,17,03,17.20
2019,04,02,17,04,17.20
2019,04,02,17,05,17.20
2019,04,02,17,06,17.20
2019,04,02,17,07,17.20
2019,04,02,17,08,17.10
2019,04,02,17,09,17.10
2019,04,02,17,10,17.10
2019,04,02,17,11,17.10
2019,04,02,17,12,17.10
2019,04,02,17,13,17.10
2019,04,02,17,14,17.10
2019,04,02,17,15,17.10
2019,04,02,17,16,17.10
2019,04,02,17,17,17.10
2019,04,02,17,18,17.10
2019,04,02,17,19,17.10
2019,04,02,17,20,17.00
2019,04,02,17,21,17.00
2019,04,02,17,22,17.00
2019,04,02,17,23,16.90
2019,04,02,17,24,16.90
2019,04,02,17,25,16.90
2019,04,02,17,26,16.90
2019,04,02,17,27,16.90
2019,04,02,17,28,16.90
2019,04,02,17,29,16.80
2019,04,02,17,30,16.80
2019,04,02,17,31,16.80
2019,04,02,17,32,16.80
2019,04,02,17,33,16.80
2019,04,02,17,34,16.80
2019,04,02,17,35,16.80